7 * 24
多渠道服务支持
STARLINK-36410是美国太空探索技术公司星链计划的卫星,于2026年1月9日发射。星链项目旨在构建全球卫星互联网星座,为全球偏远地区、海洋及航空等场景提供高速宽带接入服务。该卫星作为星链星座扩容的组成部分,将进一步提升星座服务覆盖能力与通信容量,助力全球低轨卫星通信网络搭建。
美国
(US)
| 数据来源 | 国际轨道数据 |
| 星历时间: | 2026-09-12T14:21:16+0800 1天前 查看轨道信息 |
| 半长轴: | 6861.174km |
| 偏心率: | 0.0002401 |
| 轨道倾角: | 43.003° |
| 近地点辐角 | 285.760° |
| 升交点赤经 | 253.785° |
| 平近点角 | 74.298° |
| 近地点: | 481.389km |
| 远地点: | 484.685km |
| 周期: | 94.266分钟 |
| 每日圈数: | 15.275843 |